P/2021 R5 ( Rankin )

Japanese version
Home page
Updated on March 27, 2022

---------------------------------------------------------------------

* Profile

Discovery Date September 9, 2021
Magnitude 19.3 mag
Discoverer David Rankin (Mt. Lemmon)

* Pictures

* Orbital Elements

Epoch 2022 Jan. 21.0 TT = JDT 2459600.5
T 2022 Jan. 12.13588 TT                                 Rudenko
q   3.3226633            (2000.0)            P               Q
n   0.09384655     Peri.  167.36754     +0.88708331     -0.45319027
a   4.7957569      Node   219.95948     +0.41074281     +0.86169360
e   0.3071660      Incl.    7.85376     +0.21065028     +0.22826021
P  10.5
From 224 observations 2021 June 22-2022 Jan. 28, mean residual 0".5.

* Magnitudes Graph

        m1 = 6.0 + 5 log d + 20.0 log r

---------------------------------------------------------------------

The orbital elements are published on M.P.E.C. 2022-C56.
The magnitudes graphs are made with Comet for Windows.

---------------------------------------------------------------------

Copyright(C) Seiichi Yoshida (comet@aerith.net). All rights reserved.